Retour au catalogue

COSMOS 343

ActifMilitaireLEO
NORAD 4390·PAYLOAD·🇷🇺 Russia

Lancé Apr 25, 1970 depuis Plesetsk Cosmodrome

Loading…

Prochains Passages (prochaines 24 heures)

TLE

FraisSource: Space-Track

Époque: Sep 14, 2026, 13:25 UTC

1  4390U 70036H   26257.55924200 -.00000001  00000-0  90915-4 0  9991
2  4390  74.0283 299.1420 0060280 222.4585 292.1830 12.60464216594356

Suivez COSMOS 343 en temps réel avec AllMySat

Download on the App Store